Location: Auriol
(43.3696°N, 5.6326°E)
Time: 17:42:03
(UTC+00:00)

Daily predictions for brighter satellites

Satellite Brightness Start Highest point End
(mag) Time Altitude Azimuth Time Altitude Azimuth Time Altitude Azimuth
Cosmos 2315 Rocket 4.1 18:27:18 10° SSE 18:33:27 57° E 18:39:40 10° NNE
STARLINK-1102 3.9 18:33:29 10° NW 18:37:36 59° NNE 18:41:41 10° ESE
FREGAT/IRIS 3.7 18:35:24 10° SE 18:37:37 23° ENE 18:39:52 10° NNE
Resurs 01 Rocket 3.7 18:36:28 10° ENE 18:37:41 11° ENE 18:38:53 10° NE
Aureole 3 4.4 18:34:36 10° SSE 18:38:32 35° E 18:43:26 10° NNE
Cosmos 1733 4.0 18:35:19 10° SSW 18:39:01 55° W 18:42:45 10° N
NOSS 3-3 (A) 4.3 18:33:51 10° S 18:39:11 41° ESE 18:45:06 10° NE
NOSS 3-3 (C) 4.3 18:33:58 10° S 18:39:17 40° ESE 18:45:11 10° NE
GEOS 3 Rocket 4.0 18:34:12 10° SSE 18:39:18 67° SW 18:44:31 10° NW
Cosmos 2369 Rocket 2.9 18:34:19 10° N 18:39:35 37° NE 18:44:48 10° ESE
Cosmos 1626 Rocket 3.7 18:35:24 10° N 18:39:42 53° E 18:43:56 10° SSE
Cosmos 1626 2.1 18:38:38 10° N 18:42:22 87° E 18:46:03 10° S
STARLINK-1111 3.8 18:38:27 10° NW 18:42:34 63° NNE 18:46:40 10° ESE
SL-8 R/B 4.1 18:40:28 10° WNW 18:45:10 55° NNE 18:49:51 10° E
Cosmos 1943 Rocket 2.4 18:40:19 10° NNW 18:45:44 52° ENE 18:51:10 10° SE
Meteor 1-24 Rocket 4.2 18:41:42 10° NNW 18:47:05 61° W 18:52:18 10° S
Cosmos 1709 Rocket 4.0 18:41:14 10° N 18:47:27 81° E 18:53:34 10° S
STARLINK-1073 3.7 18:43:25 10° NW 18:47:33 68° NNE 18:51:29 11° ESE
ADEOS Rocket 3.7 18:41:16 10° N 18:47:43 62° WNW 18:53:31 10° SSW
Cosmos 1602 Rocket 3.7 18:45:07 10° N 18:49:28 52° ENE 18:53:46 10° SSE
Cosmos 1470 2.6 18:46:50 10° S 18:50:41 77° E 18:54:36 10° NNE
STARLINK-1121 3.6 18:48:23 10° NW 18:52:32 74° NNE 18:56:15 13° ESE
Ariane Rocket 3.0 18:50:04 10° SSE 18:55:06 74° ENE 19:00:11 10° N
STARLINK-1106 3.6 18:53:20 10° NW 18:57:30 80° NE 19:01:01 14° ESE
Abrixas rocket 2.9 18:55:17 10° W 18:58:08 44° NNW 19:01:01 10° ENE
Cosmos 1544 Rocket 4.4 18:54:04 10° SSW 18:58:23 56° W 19:02:46 10° N
Aureole 2 Rocket 2.7 18:57:17 10° N 19:00:41 46° ENE 19:03:32 13° SE
Cosmos 2074 Rocket 4.4 18:56:23 10° N 19:02:20 43° ENE 19:08:16 10° SE
Cosmos 1943 3.6 18:57:14 10° S 19:02:26 39° ESE 19:07:40 10° NE
STARLINK-1112 3.6 18:58:20 10° NW 19:02:30 86° NE 19:05:49 15° SE
ATLAS 2AS CENTAUR R/B 3.9 18:56:30 10° NNW 19:03:18 33° NE 19:08:47 13° E
ISS -3.7 19:01:39 10° NW 19:05:00 67° NNE 19:07:16 19° ESE
Cosmos 1825 Rocket 4.4 19:03:10 10° NNE 19:07:08 31° ENE 19:10:01 16° SE
SL-08 RB Rocket 4.0 19:03:09 10° SE 19:07:28 47° ENE 19:11:52 10° N
STARLINK-1128 3.6 19:03:19 10° NW 19:07:28 87° SW 19:10:37 17° SE
USA 234 3.7 19:02:19 10° ENE 19:08:22 39° SE 19:14:23 10° SSW
SPOT 3 Rocket 4.0 19:06:50 11° SE 19:11:38 44° ENE 19:16:34 10° N
STARLINK-1113 3.6 19:08:18 10° NW 19:12:26 81° SW 19:15:23 19° SE
STARLINK-1119 3.7 19:13:17 10° WNW 19:17:25 75° SW 19:20:11 20° SE
SJ-6B 2.8 19:13:53 10° SSE 19:17:57 72° ENE 19:22:05 10° N
Cosmos 1758 Rocket 3.7 19:14:45 10° N 19:18:59 49° ENE 19:22:14 16° SSE
STARLINK-1114 3.8 19:18:16 10° WNW 19:22:23 68° SW 19:24:58 22° SE
IRIDIUM 106 4.3 19:18:06 10° N 19:23:20 72° E 19:28:32 10° S
SL-16 R/B 4.0 19:18:44 10° WSW 19:23:50 34° NW 19:28:59 10° N
MOS 1 Rocket 4.1 19:19:21 10° NNE 19:24:21 39° E 19:29:24 10° SSE
Cosmos 1953 Rocket 4.3 19:22:04 10° N 19:26:09 34° ENE 19:27:53 25° ESE
STARLINK-1130 (DARKSAT) 3.9 19:23:15 10° WNW 19:27:20 62° SW 19:29:44 23° SE
Cosmos 1818 3.7 19:22:19 10° SSW 19:27:33 50° ESE 19:32:48 10° NE
CZ-2C R/B 3.1 19:22:34 10° S 19:27:33 75° WSW 19:32:22 10° NNW
Cosmos 1606 Rocket 3.8 19:23:54 10° SSE 19:28:06 46° E 19:32:23 10° NNE
MOS 1 4.4 19:22:56 10° S 19:28:34 78° WSW 19:34:16 10° NNW
BREEZE M DEB (TANK) 4.1 19:19:06 10° SW 19:31:41 59° SSE 19:34:30 21° ENE
STARLINK-1084 4.0 19:28:14 10° WNW 19:32:18 57° SW 19:34:31 25° SSE
Cosmos 407 Rocket 4.2 19:30:03 18° SSE 19:32:52 30° E 19:37:18 10° NE
H-2A R/B 4.3 19:28:43 10° WSW 19:33:46 14° SW 19:36:30 10° SSW
Cosmos 2228 3.1 19:30:16 11° SSE 19:34:10 50° E 19:38:22 10° NNE
SL-24 R/B 3.8 19:31:51 10° NNE 19:36:07 70° E 19:39:54 10° S
CZ-2C R/B 2.8 19:31:25 10° NNE 19:36:23 46° E 19:41:21 10° S
Cosmos 2084 Rocket 4.3 19:32:53 10° NW 19:37:12 48° WSW 19:40:26 17° S
STARLINK-1098 4.1 19:33:15 10° WNW 19:37:17 52° SW 19:39:19 26° SSE
Cosmos 1656 Rocket 4.0 19:32:02 10° NNW 19:37:34 50° ENE 19:40:14 28° ESE
Meteor 1-21 Rocket 4.3 19:33:03 10° NNW 19:38:36 74° W 19:44:06 10° S
Cosmos 1992 Rocket 4.1 19:33:55 10° NNW 19:39:08 75° WSW 19:43:32 15° SSE
ARGOS 3.6 19:35:13 10° S 19:40:34 63° WSW 19:45:56 10° NNW
STARLINK-1123 4.3 19:38:16 10° WNW 19:42:15 47° SW 19:44:06 27° SSE
MetOp-A 4.1 19:38:31 17° SSE 19:42:42 77° ENE 19:48:04 10° N
SL-4 R/B 1.7 19:40:33 10° SW 19:43:45 49° SSE 19:43:45 49° SSE
BREEZE-M DEB (TANK) 3.9 19:39:07 10° WNW 19:44:57 47° N 19:45:58 33° ENE
USA 186 3.7 19:42:45 10° SSW 19:45:50 31° W 19:48:51 10° NNW
Cosmos 1603 3.9 19:40:20 10° SSW 19:45:57 74° WNW 19:51:36 10° NNE
COSMOS 2455 4.2 19:41:06 10° NNW 19:46:03 25° NE 19:48:18 20° ENE
Cosmos 1726 2.4 19:42:52 10° SSW 19:46:35 68° W 19:50:19 10° N
Cosmos 1340 Rocket 3.8 19:47:46 30° ENE 19:47:46 30° ENE 19:50:40 10° NNE
STARLINK-1097 4.4 19:43:16 10° WNW 19:47:12 43° SW 19:48:52 28° S
H-2A R/B 3.2 19:44:29 10° S 19:49:30 43° W 19:54:23 10° NNW
Meteor 1-16 Rocket 4.1 19:47:14 10° S 19:52:36 85° W 19:58:08 10° N
Resurs 1-3 3.5 19:51:23 30° SSE 19:53:32 86° ENE 19:57:57 10° NNW
Cosmos 1328 3.7 19:50:32 10° N 19:54:32 71° E 19:55:28 50° SSE
Cosmos 2184 Rocket 4.1 19:52:40 10° N 19:58:59 76° W 20:04:57 11° S
Cosmos 1703 3.3 20:02:02 10° N 20:05:59 80° W 20:06:52 53° S
Cosmos 1953 4.3 20:03:06 10° SW 20:06:33 29° WNW 20:10:04 10° NNW
Cosmos 1461 4.2 20:03:38 10° NNW 20:07:38 30° NE 20:07:55 29° NE
DMSP B5D2-2 4.2 20:05:37 10° N 20:10:50 74° WNW 20:16:02 10° SSW
Resurs 01 Rocket 1.5 20:12:28 53° S 20:13:29 84° WSW 20:17:55 10° NNW
APEX 4.3 20:11:48 10° NNW 20:18:27 65° ENE 20:19:41 52° ESE
Cosmos 2181 Rocket 4.3 20:18:41 43° E 20:18:51 43° E 20:24:40 10° NNE
Cosmos 2058 Rocket 3.0 20:18:19 66° S 20:18:57 84° E 20:23:29 10° N
USA 245 4.3 20:18:18 51° E 20:19:01 54° ENE 20:24:55 10° N
Cosmos 2154 Rocket 4.1 20:14:29 10° N 20:20:52 80° W 20:24:20 29° S
NOSS 3-4 (A) 3.9 20:15:27 10° NNW 20:22:28 71° NE 20:24:57 45° ESE
NOSS 3-4 (C) 3.9 20:15:34 10° NNW 20:22:35 70° NE 20:25:03 45° ESE
Cosmos 2369 Rocket 3.5 20:18:27 10° NW 20:23:33 35° WSW 20:27:18 16° SSW
Landsat 7 4.4 20:24:18 43° NE 20:24:18 43° NE 20:28:20 10° N
Nadezhda 1 Rocket 4.3 20:19:41 10° SSW 20:26:03 67° W 20:32:25 10° N
SL-8 R/B 3.9 20:23:06 10° WNW 20:27:46 55° SSW 20:27:50 55° SSW
Cosmos 962 Rocket 4.3 20:21:41 10° N 20:27:51 74° E 20:29:12 55° SSE
Cosmos 1908 4.3 20:27:25 28° SW 20:28:56 42° WNW 20:32:39 10° N
Cosmos 1943 Rocket 4.2 20:24:49 10° NW 20:29:05 23° WSW 20:33:22 10° SSW
Meteor 1-11 4.4 20:26:36 10° NNW 20:32:21 70° W 20:34:22 41° SSW
SL-8 Rocket 4.1 20:26:17 10° N 20:32:28 54° ENE 20:32:55 53° E
SL-24 R/B - RUBIN 2 4.1 20:31:32 10° SSW 20:37:01 81° ESE 20:43:16 10° NE
SPOT 5 4.3 20:39:20 24° NNE 20:39:20 24° NNE 20:41:30 10° N
ISS -1.0 20:39:14 10° W 20:40:16 14° WSW 20:40:16 14° WSW
Cosmos 1190 Rocket 4.1 20:40:52 41° SSW 20:42:47 77° WNW 20:48:07 10° NNE
Cosmos 2366 rocket 4.2 20:36:49 10° N 20:42:31 50° ENE 20:42:31 50° ENE
Spot 2 Rocket 3.4 20:46:23 82° WSW 20:46:25 82° WSW 20:51:34 10° NNW
USA 234 3.5 20:45:07 10° NE 20:51:36 67° NW 20:58:04 10° WSW
Cosmos 1140 Rocket 3.5 20:51:22 72° W 20:51:38 74° WNW 20:56:50 10° NNE
ATLAS 2AS CENTAUR R/B 2.8 20:47:29 10° NW 20:55:01 74° WSW 20:56:14 61° S
MetOp-B 4.5 20:57:15 55° SW 20:57:45 58° W 21:03:03 10° NNW
BREEZE M DEB (TANK) 4.1 21:02:08 48° ENE 21:02:08 48° ENE 21:11:24 10° ENE
Terra 3.3 21:07:36 29° NNE 21:07:36 29° NNE 21:10:11 10° N
SPOT 1/Viking Rocket 4.1 21:17:03 56° NW 21:17:03 56° NW 21:21:20 10° NNW
ERS-1 Rocket 4.0 21:27:58 43° NNW 21:27:58 43° NNW 21:31:26 10° NNW
COSMOS 2455 3.3 21:26:31 10° NW 21:31:27 57° WNW 21:31:27 57° WNW
Cosmos 1980 Rocket 4.3 21:31:04 10° N 21:33:52 17° NE 21:33:52 17° NE
ATLAS 5 CENTAUR R/B 4.4 22:02:17 14° N 22:02:17 14° N 22:03:17 10° NNE
SL-16 R/B 4.4 22:58:04 10° N 23:00:33 20° NNE 23:00:33 20° NNE
CZ-4C R/B 3.6 22:57:35 10° NNW 23:02:42 48° N 23:02:42 48° N
Cosmos 2322 Rocket 4.4 23:09:25 10° N 23:11:48 20° NNE 23:11:48 20° NNE
Cosmos 1980 Rocket 4.4 23:13:52 10° NNW 23:15:38 21° NNW 23:15:38 21° NNW
Cosmos 2344 4.3 23:29:18 10° NW 23:38:50 85° WNW 23:38:50 85° WNW
Cosmos 2082 Rocket 4.3 23:44:34 22° N 23:44:34 22° N 23:46:40 10° NNE
